Погода в Первомайском

Россия / Чувашская Республика     54°54′47″N   46°58′12″E
темп.,
°C
ветер,
м/с
пор.,
м/с
влажн.,
%
обл.,
%
осадки,
мм/ч
давл.,
гПа
погр.,
м
28 февраля, вс
вс2800:00−17ссз41195100 0.0 1007349
03:00−19ссз31097100 0.1 1009280
06:00−20ссз389792 0.0 1010245
09:00−18сз389580 0.0 1011266
12:00−13сз379288 0.0 1012443
15:00−12сз379094 0.1 1013568
18:00−16сз2597100 0.0 101594
21:00−17ссз2598100 0.1 1018129
1 марта, пн
пн100:00−19ссз2310080 0.0 101944
03:00−20сз2210080 0.0 102126
06:00−21сз2210066 0.0 102223
09:00−17сз239666 0.0 1023178
12:00−12зсз249485 0.0 1023364
15:00−11з359293 0.1 1022394
18:00−14юз239897 0.0 102166
21:00−13юз399799 0.1 1019231
2 марта, вт
вт200:00−11юз41196100 0.1 1016359
03:00−9юз51295100 0.2 1011434
06:00−5юз61395100 2.0 1006634
09:00−3юз61297100 4.3 1003593
12:000юз510100100 1.9 1001625
15:000зсз4998100 3.1 1000710
18:00−1зсз399697 0.2 1000514
21:00−1сз4129298 0.8 1001815
3 марта, ср
ср300:00−2сз4994100 0.3 1002603
03:00−4сз3996100 0.6 1003478
06:00−5зсз399699 0.3 1003362
09:00−4сз499495 0.6 1004578
12:00−3сз4893100 0.3 1006678
15:00−2сз4996100 0.8 1008700
18:00−5ссз51087100 0.4 1009798
21:00−7сз41294100 0.4 1012567
4 марта, чт
чт400:00−9зсз3119596 0.1 1013365
03:00−10зсз389798 0.2 1014258
06:00−11зсз3897100 0.1 1015248
09:00−10з3796100 0.1 1015272
12:00−6зюз4795100 0.0 1014471
15:00−5юз5994100 0.1 1012532
18:00−3юз61292100 0.1 1010733
21:00−3юз61491100 0.1 1008745